Mandoudi — SV3198 — position and weather

sailwx.info

Track history (hours):
 
Tides and Currents Weather Stations Pressure Air Temp Water Temp Dewpoint Dewpoint Depression Visibility Wind Speed Wind Dir Waves Ship Positions

Mandoudi

Last reported at 2014-Nov-21 20:34 UTC. Time now 2014-Nov-21 20:40 UTC.
Position N 37°58' E 023°37'.

Length 60 m; draft 4.6 m.

Type: Ship (hazmat cat A). MMSI: 237470200.

Date/timePositionNaut miles runAvg speedWind from/ knotsBaromVisibWave heightAir tempDewpointWater temp
2014-Nov-21 20:34N 37°58' E 023°37'0 0.0
2014-Nov-21 19:33N 37°58' E 023°37'0 0.0
2014-Nov-21 18:34N 37°58' E 023°37'0 0.0
2014-Nov-21 17:33N 37°58' E 023°37'0 0.0
2014-Nov-21 16:33N 37°58' E 023°37'0 0.0
2014-Nov-21 15:29N 37°58' E 023°37'3 3.5
2014-Nov-21 14:33N 37°58' E 023°33'4 4.3
2014-Nov-21 13:33N 38°02' E 023°31'0 0.0
2014-Nov-21 12:32N 38°02' E 023°31'0 0.0
2014-Nov-21 11:33N 38°02' E 023°31'0 0.0
2014-Nov-21 10:33N 38°02' E 023°31'0 0.0
2014-Nov-21 09:33N 38°02' E 023°31'0 0.0
2014-Nov-21 08:33N 38°02' E 023°31'0 0.0
2014-Nov-21 07:33N 38°02' E 023°31'0 0.0
2014-Nov-21 06:33N 38°02' E 023°31'0 0.4
2014-Nov-21 05:33N 38°02' E 023°31'5 5.3
2014-Nov-21 04:33N 37°57' E 023°34'2 0.5
2014-Nov-20 23:33N 37°58' E 023°37'0 0.0
2014-Nov-20 22:33N 37°58' E 023°37'0 0.0
2014-Nov-20 21:33N 37°58' E 023°37'0 0.0
2014-Nov-20 20:33N 37°58' E 023°37'0 0.0
2014-Nov-20 19:33N 37°58' E 023°37'0 0.0
2014-Nov-20 18:33N 37°58' E 023°37'0 0.0
2014-Nov-20 17:33N 37°58' E 023°37'0 0.0
2014-Nov-20 16:33N 37°58' E 023°37'0 0.0
2014-Nov-20 15:33N 37°58' E 023°37'0 0.0
2014-Nov-20 14:33N 37°58' E 023°37'1 1.0
2014-Nov-20 13:33N 37°57' E 023°37'1 1.3
2014-Nov-20 12:33N 37°57' E 023°38'0 0.0
2014-Nov-20 11:33N 37°57' E 023°38'0 0.0
2014-Nov-20 10:33N 37°57' E 023°38'0 0.0
2014-Nov-20 09:33N 37°57' E 023°38'0 0.2
2014-Nov-20 08:33N 37°57' E 023°38'0 0.0
2014-Nov-20 07:33N 37°57' E 023°38'0 0.0
2014-Nov-20 06:29N 37°57' E 023°38'1 0.3
2014-Nov-20 01:16N 37°58' E 023°37'0 0.0
2014-Nov-20 00:34N 37°58' E 023°37'0 0.0
2014-Nov-19 23:33N 37°58' E 023°37'0 0.0
2014-Nov-19 22:33N 37°58' E 023°37'0 0.0
2014-Nov-19 21:33N 37°58' E 023°37'0 0.0
2014-Nov-19 20:33N 37°58' E 023°37'0 0.0
2014-Nov-19 19:34N 37°58' E 023°37'0 0.0
2014-Nov-19 18:33N 37°58' E 023°37'0 0.0
2014-Nov-19 17:33N 37°58' E 023°37'0 0.0
2014-Nov-19 16:34N 37°58' E 023°37'0 0.0
2014-Nov-19 15:33N 37°58' E 023°37'0 0.0
2014-Nov-19 14:34N 37°58' E 023°37'0 0.0
2014-Nov-19 13:33N 37°58' E 023°37'0 0.0
2014-Nov-19 12:34N 37°58' E 023°37'0 0.0
2014-Nov-19 11:34N 37°58' E 023°37'3 3.1
2014-Nov-19 10:33N 37°58' E 023°33'4 4.1
2014-Nov-19 09:34N 38°01' E 023°35'1 0.5
2014-Nov-19 08:33N 38°02' E 023°36'0 0.0
2014-Nov-19 07:33N 38°02' E 023°36'0 0.0
2014-Nov-19 06:33N 38°02' E 023°36'1 0.9
2014-Nov-19 05:34N 38°01' E 023°35'4 4.0
2014-Nov-19 04:34N 37°57' E 023°37'0 0.0
2014-Nov-18 10:33N 37°58' E 023°37'0 0.0
2014-Nov-18 09:34N 37°58' E 023°37'0 0.0
2014-Nov-18 08:34N 37°58' E 023°37'0 0.0
2014-Nov-18 07:33N 37°58' E 023°37'0 0.0
2014-Nov-18 06:34N 37°58' E 023°37'0 0.0
2014-Nov-18 05:34N 37°58' E 023°37'0 0.0
2014-Nov-17 22:06N 37°58' E 023°37'0 0.0
2014-Nov-17 21:33N 37°58' E 023°37'0 0.0
2014-Nov-17 20:33N 37°58' E 023°37'0 0.0
2014-Nov-17 19:33N 37°58' E 023°37'0 0.0
2014-Nov-17 18:33N 37°58' E 023°37'0 0.0
2014-Nov-17 17:33N 37°58' E 023°37'0 0.0
2014-Nov-17 16:33N 37°58' E 023°37'0 0.0
2014-Nov-17 15:33N 37°58' E 023°37'0 0.0
2014-Nov-17 14:33N 37°58' E 023°37'1 1.4
2014-Nov-17 13:33N 37°57' E 023°38'0 0.0
2014-Nov-17 12:33N 37°57' E 023°38'0 0.0
2014-Nov-17 11:33N 37°57' E 023°38'0 0.0
2014-Nov-17 10:33N 37°57' E 023°38'0 0.2
2014-Nov-17 09:33N 37°57' E 023°38'0 0.0
2014-Nov-17 08:33N 37°57' E 023°38'0 0.0
2014-Nov-17 07:33N 37°57' E 023°38'2 1.9
2014-Nov-17 06:33N 37°57' E 023°36'0 0.4
2014-Nov-17 05:19N 37°58' E 023°37'0 0.0
2014-Nov-17 04:34N 37°58' E 023°37'0 0.0
2014-Nov-17 03:34N 37°58' E 023°37'0 0.0
2014-Nov-17 02:34N 37°58' E 023°37'0 0.0
2014-Nov-17 01:34N 37°58' E 023°37'0 0.0
2014-Nov-17 00:34N 37°58' E 023°37'0 0.0
2014-Nov-16 23:34N 37°58' E 023°37'0 0.0
2014-Nov-16 22:34N 37°58' E 023°37'0 0.0
2014-Nov-16 21:34N 37°58' E 023°37'0 0.0
2014-Nov-16 20:34N 37°58' E 023°37'0 0.0
2014-Nov-16 19:34N 37°58' E 023°37'0 0.0
2014-Nov-16 18:34N 37°58' E 023°37'0 0.0
2014-Nov-16 17:34N 37°58' E 023°37'0 0.0
2014-Nov-16 16:34N 37°58' E 023°37'5 4.8
2014-Nov-16 15:34N 38°01' E 023°32'0 0.2
2014-Nov-16 13:33N 38°01' E 023°32'0 0.5
2014-Nov-16 12:33N 38°01' E 023°32'0 0.2
2014-Nov-16 11:33N 38°02' E 023°32'0 0.1
2014-Nov-16 10:34N 38°01' E 023°32'0 0.4
2014-Nov-16 09:34N 38°01' E 023°32'1 1.4
2014-Nov-16 08:33N 37°60' E 023°33'4 4.0
2014-Nov-16 07:34N 37°58' E 023°37'0 0.0
2014-Nov-16 06:34N 37°58' E 023°37'0 0.0
2014-Nov-16 02:15N 37°58' E 023°37'0 0.0
2014-Nov-16 01:21N 37°58' E 023°37'0 0.0
2014-Nov-16 00:34N 37°58' E 023°37'0 0.0
2014-Nov-15 23:33N 37°58' E 023°37'0 0.0
2014-Nov-15 22:33N 37°58' E 023°37'0 0.0
2014-Nov-15 21:33N 37°58' E 023°37'0 0.0
2014-Nov-15 20:33N 37°58' E 023°37'0 0.0
2014-Nov-15 19:33N 37°58' E 023°37'0 0.0
2014-Nov-15 18:33N 37°58' E 023°37'0 0.0
2014-Nov-15 17:33N 37°58' E 023°37'0 0.0
2014-Nov-15 16:33N 37°58' E 023°37'0 0.0
2014-Nov-15 15:33N 37°58' E 023°37'0 0.0
2014-Nov-15 14:33N 37°58' E 023°37'0 0.0
2014-Nov-15 13:33N 37°58' E 023°37'0 0.0
2014-Nov-15 12:34N 37°58' E 023°37'5 5.2
2014-Nov-15 11:33N 38°02' E 023°32'0 0.0
2014-Nov-15 10:14N 38°02' E 023°32'0 0.0
2014-Nov-15 09:33N 38°02' E 023°32'0 0.0
2014-Nov-15 08:33N 38°02' E 023°32'1 0.9
2014-Nov-15 07:29N 38°02' E 023°31'0 0.0
2014-Nov-15 06:33N 38°02' E 023°31'0 0.0
2014-Nov-15 05:33N 38°02' E 023°31'0 0.0
2014-Nov-15 04:33N 38°02' E 023°31'0 0.0
2014-Nov-15 03:26N 38°02' E 023°31'0 0.0
2014-Nov-15 02:31N 38°02' E 023°31'0 0.0
2014-Nov-15 01:28N 38°02' E 023°31'0 0.0
2014-Nov-15 00:34N 38°02' E 023°31'0 0.0
2014-Nov-14 23:34N 38°02' E 023°31'1 0.7
2014-Nov-14 22:34N 38°02' E 023°31'0 0.0
2014-Nov-14 21:34N 38°02' E 023°31'0 0.0
2014-Nov-14 20:33N 38°02' E 023°31'0 0.0
2014-Nov-14 19:34N 38°02' E 023°31'0 0.0
2014-Nov-14 18:33N 38°02' E 023°31'0 0.0
2014-Nov-14 17:34N 38°02' E 023°31'0 0.0
2014-Nov-14 16:34N 38°02' E 023°31'0 0.1
2014-Nov-14 15:33N 38°02' E 023°31'6 5.7
2014-Nov-14 14:34N 37°57' E 023°34'3 1.5
2014-Nov-14 12:33N 37°57' E 023°38'0 0.0
2014-Nov-14 11:20N 37°57' E 023°38'0 0.0
2014-Nov-14 10:26N 37°57' E 023°38'0 0.0
2014-Nov-14 09:34N 37°57' E 023°38'0 0.0
2014-Nov-14 08:27N 37°57' E 023°38'1 0.1
2014-Nov-13 12:33N 37°58' E 023°37'0 0.0
2014-Nov-13 11:33N 37°58' E 023°37'0 0.0
2014-Nov-13 10:21N 37°58' E 023°37'0 0.0
2014-Nov-13 09:33N 37°58' E 023°37'0 0.0
2014-Nov-13 08:33N 37°58' E 023°37'0 0.0
2014-Nov-13 07:06N 37°58' E 023°37'0 0.0
2014-Nov-13 06:33N 37°58' E 023°37'2 1.6
2014-Nov-13 05:33N 37°57' E 023°35'5 3.7
2014-Nov-13 04:07N 38°02' E 023°31'0 0.0
2014-Nov-13 03:27N 38°02' E 023°31'0 0.0
2014-Nov-13 02:03N 38°02' E 023°31'0 0.0
2014-Nov-13 01:26N 38°02' E 023°31'0 0.0
2014-Nov-13 00:31N 38°02' E 023°31'0 0.0
2014-Nov-12 23:32N 38°02' E 023°31'1 0.7
2014-Nov-12 22:33N 38°02' E 023°31'0 0.0
2014-Nov-12 21:33N 38°02' E 023°31'0 0.0
2014-Nov-12 20:30N 38°02' E 023°31'0 0.0
2014-Nov-12 19:33N 38°02' E 023°31'0 0.0
2014-Nov-12 18:33N 38°02' E 023°31'0 0.0
2014-Nov-12 17:33N 38°02' E 023°31'0 0.0
2014-Nov-12 16:33N 38°02' E 023°31'4 3.5
2014-Nov-12 15:33N 37°59' E 023°33'5 4.8
2014-Nov-12 14:33N 37°57' E 023°38'0 0.0
2014-Nov-12 13:33N 37°57' E 023°38'0 0.0
2014-Nov-12 12:33N 37°57' E 023°38'0 0.0
2014-Nov-12 11:33N 37°57' E 023°38'4 1.3
2014-Nov-12 08:06N 37°58' E 023°33'3 2.0
2014-Nov-12 06:33N 37°58' E 023°37'0 0.0
2014-Nov-11 21:08N 37°58' E 023°37'  
Track history (hours):
 
Tides and Currents Weather Stations Pressure Air Temp Water Temp Dewpoint Dewpoint Depression Visibility Wind Speed Wind Dir Waves Ship Positions

Mandoudi

Last reported at 2014-Nov-21 20:34 UTC. Time now 2014-Nov-21 20:40 UTC.
Position N 37°58' E 023°37'.

Length 60 m; draft 4.6 m.

Type: Ship (hazmat cat A). MMSI: 237470200.

Date/timePositionNaut miles runAvg speedWind from/ knotsBaromVisibWave heightAir tempDewpointWater temp
2014-Nov-21 20:34N 37°58' E 023°37'0 0.0
2014-Nov-21 19:33N 37°58' E 023°37'0 0.0
2014-Nov-21 18:34N 37°58' E 023°37'0 0.0
2014-Nov-21 17:33N 37°58' E 023°37'0 0.0
2014-Nov-21 16:33N 37°58' E 023°37'0 0.0
2014-Nov-21 15:29N 37°58' E 023°37'3 3.5
2014-Nov-21 14:33N 37°58' E 023°33'4 4.3
2014-Nov-21 13:33N 38°02' E 023°31'0 0.0
2014-Nov-21 12:32N 38°02' E 023°31'0 0.0
2014-Nov-21 11:33N 38°02' E 023°31'0 0.0
2014-Nov-21 10:33N 38°02' E 023°31'0 0.0
2014-Nov-21 09:33N 38°02' E 023°31'0 0.0
2014-Nov-21 08:33N 38°02' E 023°31'0 0.0
2014-Nov-21 07:33N 38°02' E 023°31'0 0.0
2014-Nov-21 06:33N 38°02' E 023°31'0 0.4
2014-Nov-21 05:33N 38°02' E 023°31'5 5.3
2014-Nov-21 04:33N 37°57' E 023°34'2 0.5
2014-Nov-20 23:33N 37°58' E 023°37'0 0.0
2014-Nov-20 22:33N 37°58' E 023°37'0 0.0
2014-Nov-20 21:33N 37°58' E 023°37'0 0.0
2014-Nov-20 20:33N 37°58' E 023°37'0 0.0
2014-Nov-20 19:33N 37°58' E 023°37'0 0.0
2014-Nov-20 18:33N 37°58' E 023°37'0 0.0
2014-Nov-20 17:33N 37°58' E 023°37'0 0.0
2014-Nov-20 16:33N 37°58' E 023°37'0 0.0
2014-Nov-20 15:33N 37°58' E 023°37'0 0.0
2014-Nov-20 14:33N 37°58' E 023°37'1 1.0
2014-Nov-20 13:33N 37°57' E 023°37'1 1.3
2014-Nov-20 12:33N 37°57' E 023°38'0 0.0
2014-Nov-20 11:33N 37°57' E 023°38'0 0.0
2014-Nov-20 10:33N 37°57' E 023°38'0 0.0
2014-Nov-20 09:33N 37°57' E 023°38'0 0.2
2014-Nov-20 08:33N 37°57' E 023°38'0 0.0
2014-Nov-20 07:33N 37°57' E 023°38'0 0.0
2014-Nov-20 06:29N 37°57' E 023°38'1 0.3
2014-Nov-20 01:16N 37°58' E 023°37'0 0.0
2014-Nov-20 00:34N 37°58' E 023°37'0 0.0
2014-Nov-19 23:33N 37°58' E 023°37'0 0.0
2014-Nov-19 22:33N 37°58' E 023°37'0 0.0
2014-Nov-19 21:33N 37°58' E 023°37'0 0.0
2014-Nov-19 20:33N 37°58' E 023°37'0 0.0
2014-Nov-19 19:34N 37°58' E 023°37'0 0.0
2014-Nov-19 18:33N 37°58' E 023°37'0 0.0
2014-Nov-19 17:33N 37°58' E 023°37'0 0.0
2014-Nov-19 16:34N 37°58' E 023°37'0 0.0
2014-Nov-19 15:33N 37°58' E 023°37'0 0.0
2014-Nov-19 14:34N 37°58' E 023°37'0 0.0
2014-Nov-19 13:33N 37°58' E 023°37'0 0.0
2014-Nov-19 12:34N 37°58' E 023°37'0 0.0
2014-Nov-19 11:34N 37°58' E 023°37'3 3.1
2014-Nov-19 10:33N 37°58' E 023°33'4 4.1
2014-Nov-19 09:34N 38°01' E 023°35'1 0.5
2014-Nov-19 08:33N 38°02' E 023°36'0 0.0
2014-Nov-19 07:33N 38°02' E 023°36'0 0.0
2014-Nov-19 06:33N 38°02' E 023°36'1 0.9
2014-Nov-19 05:34N 38°01' E 023°35'4 4.0
2014-Nov-19 04:34N 37°57' E 023°37'0 0.0
2014-Nov-18 10:33N 37°58' E 023°37'0 0.0
2014-Nov-18 09:34N 37°58' E 023°37'0 0.0
2014-Nov-18 08:34N 37°58' E 023°37'0 0.0
2014-Nov-18 07:33N 37°58' E 023°37'0 0.0
2014-Nov-18 06:34N 37°58' E 023°37'0 0.0
2014-Nov-18 05:34N 37°58' E 023°37'0 0.0
2014-Nov-17 22:06N 37°58' E 023°37'0 0.0
2014-Nov-17 21:33N 37°58' E 023°37'0 0.0
2014-Nov-17 20:33N 37°58' E 023°37'0 0.0
2014-Nov-17 19:33N 37°58' E 023°37'0 0.0
2014-Nov-17 18:33N 37°58' E 023°37'0 0.0
2014-Nov-17 17:33N 37°58' E 023°37'0 0.0
2014-Nov-17 16:33N 37°58' E 023°37'0 0.0
2014-Nov-17 15:33N 37°58' E 023°37'0 0.0
2014-Nov-17 14:33N 37°58' E 023°37'1 1.4
2014-Nov-17 13:33N 37°57' E 023°38'0 0.0
2014-Nov-17 12:33N 37°57' E 023°38'0 0.0
2014-Nov-17 11:33N 37°57' E 023°38'0 0.0
2014-Nov-17 10:33N 37°57' E 023°38'0 0.2
2014-Nov-17 09:33N 37°57' E 023°38'0 0.0
2014-Nov-17 08:33N 37°57' E 023°38'0 0.0
2014-Nov-17 07:33N 37°57' E 023°38'2 1.9
2014-Nov-17 06:33N 37°57' E 023°36'0 0.4
2014-Nov-17 05:19N 37°58' E 023°37'0 0.0
2014-Nov-17 04:34N 37°58' E 023°37'0 0.0
2014-Nov-17 03:34N 37°58' E 023°37'0 0.0
2014-Nov-17 02:34N 37°58' E 023°37'0 0.0
2014-Nov-17 01:34N 37°58' E 023°37'0 0.0
2014-Nov-17 00:34N 37°58' E 023°37'0 0.0
2014-Nov-16 23:34N 37°58' E 023°37'0 0.0
2014-Nov-16 22:34N 37°58' E 023°37'0 0.0
2014-Nov-16 21:34N 37°58' E 023°37'0 0.0
2014-Nov-16 20:34N 37°58' E 023°37'0 0.0
2014-Nov-16 19:34N 37°58' E 023°37'0 0.0
2014-Nov-16 18:34N 37°58' E 023°37'0 0.0
2014-Nov-16 17:34N 37°58' E 023°37'0 0.0
2014-Nov-16 16:34N 37°58' E 023°37'5 4.8
2014-Nov-16 15:34N 38°01' E 023°32'0 0.2
2014-Nov-16 13:33N 38°01' E 023°32'0 0.5
2014-Nov-16 12:33N 38°01' E 023°32'0 0.2
2014-Nov-16 11:33N 38°02' E 023°32'0 0.1
2014-Nov-16 10:34N 38°01' E 023°32'0 0.4
2014-Nov-16 09:34N 38°01' E 023°32'1 1.4
2014-Nov-16 08:33N 37°60' E 023°33'4 4.0
2014-Nov-16 07:34N 37°58' E 023°37'0 0.0
2014-Nov-16 06:34N 37°58' E 023°37'0 0.0
2014-Nov-16 02:15N 37°58' E 023°37'0 0.0
2014-Nov-16 01:21N 37°58' E 023°37'0 0.0
2014-Nov-16 00:34N 37°58' E 023°37'0 0.0
2014-Nov-15 23:33N 37°58' E 023°37'0 0.0
2014-Nov-15 22:33N 37°58' E 023°37'0 0.0
2014-Nov-15 21:33N 37°58' E 023°37'0 0.0
2014-Nov-15 20:33N 37°58' E 023°37'0 0.0
2014-Nov-15 19:33N 37°58' E 023°37'0 0.0
2014-Nov-15 18:33N 37°58' E 023°37'0 0.0
2014-Nov-15 17:33N 37°58' E 023°37'0 0.0
2014-Nov-15 16:33N 37°58' E 023°37'0 0.0
2014-Nov-15 15:33N 37°58' E 023°37'0 0.0
2014-Nov-15 14:33N 37°58' E 023°37'0 0.0
2014-Nov-15 13:33N 37°58' E 023°37'0 0.0
2014-Nov-15 12:34N 37°58' E 023°37'5 5.2
2014-Nov-15 11:33N 38°02' E 023°32'0 0.0
2014-Nov-15 10:14N 38°02' E 023°32'0 0.0
2014-Nov-15 09:33N 38°02' E 023°32'0 0.0
2014-Nov-15 08:33N 38°02' E 023°32'1 0.9
2014-Nov-15 07:29N 38°02' E 023°31'0 0.0
2014-Nov-15 06:33N 38°02' E 023°31'0 0.0
2014-Nov-15 05:33N 38°02' E 023°31'0 0.0
2014-Nov-15 04:33N 38°02' E 023°31'0 0.0
2014-Nov-15 03:26N 38°02' E 023°31'0 0.0
2014-Nov-15 02:31N 38°02' E 023°31'0 0.0
2014-Nov-15 01:28N 38°02' E 023°31'0 0.0
2014-Nov-15 00:34N 38°02' E 023°31'0 0.0
2014-Nov-14 23:34N 38°02' E 023°31'1 0.7
2014-Nov-14 22:34N 38°02' E 023°31'0 0.0
2014-Nov-14 21:34N 38°02' E 023°31'0 0.0
2014-Nov-14 20:33N 38°02' E 023°31'0 0.0
2014-Nov-14 19:34N 38°02' E 023°31'0 0.0
2014-Nov-14 18:33N 38°02' E 023°31'0 0.0
2014-Nov-14 17:34N 38°02' E 023°31'0 0.0
2014-Nov-14 16:34N 38°02' E 023°31'0 0.1
2014-Nov-14 15:33N 38°02' E 023°31'6 5.7
2014-Nov-14 14:34N 37°57' E 023°34'3 1.5
2014-Nov-14 12:33N 37°57' E 023°38'0 0.0
2014-Nov-14 11:20N 37°57' E 023°38'0 0.0
2014-Nov-14 10:26N 37°57' E 023°38'0 0.0
2014-Nov-14 09:34N 37°57' E 023°38'0 0.0
2014-Nov-14 08:27N 37°57' E 023°38'1 0.1
2014-Nov-13 12:33N 37°58' E 023°37'0 0.0
2014-Nov-13 11:33N 37°58' E 023°37'0 0.0
2014-Nov-13 10:21N 37°58' E 023°37'0 0.0
2014-Nov-13 09:33N 37°58' E 023°37'0 0.0
2014-Nov-13 08:33N 37°58' E 023°37'0 0.0
2014-Nov-13 07:06N 37°58' E 023°37'0 0.0
2014-Nov-13 06:33N 37°58' E 023°37'2 1.6
2014-Nov-13 05:33N 37°57' E 023°35'5 3.7
2014-Nov-13 04:07N 38°02' E 023°31'0 0.0
2014-Nov-13 03:27N 38°02' E 023°31'0 0.0
2014-Nov-13 02:03N 38°02' E 023°31'0 0.0
2014-Nov-13 01:26N 38°02' E 023°31'0 0.0
2014-Nov-13 00:31N 38°02' E 023°31'0 0.0
2014-Nov-12 23:32N 38°02' E 023°31'1 0.7
2014-Nov-12 22:33N 38°02' E 023°31'0 0.0
2014-Nov-12 21:33N 38°02' E 023°31'0 0.0
2014-Nov-12 20:30N 38°02' E 023°31'0 0.0
2014-Nov-12 19:33N 38°02' E 023°31'0 0.0
2014-Nov-12 18:33N 38°02' E 023°31'0 0.0
2014-Nov-12 17:33N 38°02' E 023°31'0 0.0
2014-Nov-12 16:33N 38°02' E 023°31'4 3.5
2014-Nov-12 15:33N 37°59' E 023°33'5 4.8
2014-Nov-12 14:33N 37°57' E 023°38'0 0.0
2014-Nov-12 13:33N 37°57' E 023°38'0 0.0
2014-Nov-12 12:33N 37°57' E 023°38'0 0.0
2014-Nov-12 11:33N 37°57' E 023°38'4 1.3
2014-Nov-12 08:06N 37°58' E 023°33'3 2.0
2014-Nov-12 06:33N 37°58' E 023°37'0 0.0
2014-Nov-11 21:08N 37°58' E 023°37'  

Dump ship's entire track history